Penn Yan, NY

12:40 PM EDT on October 23, 2019 (GMT -0400)
Penn Yan

Weather History for KPEO - September, 2019

Change the Weather History Date:

Tuesday, September 17, 2019

  Actual Average (KITH) Record (KITH)
Temperature  
Mean Temperature 60 °F -  
Max Temperature 73 °F 68 °F 92 °F (1991)
Min Temperature 48 °F 48 °F 32 °F (1964)
Degree Days  
Heating Degree Days 5    
Growing Degree Days 10 (Base 50)    
Moisture  
Dew Point 50 °F    
Average Humidity 82    
Maximum Humidity 100    
Minimum Humidity 41    
Precipitation  
Precipitation 0.00 in - - ()
Sea Level Pressure  
Sea Level Pressure 30.21 in    
Wind  
Wind Speed 3 mph (SW)    
Max Wind Speed 10 mph    
Max Gust Speed -    
Visibility 8 miles    
Events Fog    
Averages and records for this station are not official NWS values.
T = Trace of Precipitation, MM = Missing Value Source: NWS Daily Summary

Daily Weather History Graph

Daily Weather History Graph

Search for Another Location

Airport or City:

Astronomy

Sep. 17, 2019 Rise Set
Actual Time 6:49 AM EDT 7:14 PM EDT
Civil Twilight 6:21 AM EDT 7:43 PM EDT
Nautical Twilight 5:48 AM EDT 8:16 PM EDT
Astronomical Twilight 5:13 AM EDT 8:50 PM EDT
Moon 9:12 PM EDT (9/17) 9:55 AM EDT (9/17)
Length of Visible Light 13h 21m
Length of Day
12h 24m
Waning Gibbous, 89% of the Moon is Illuminated
Sep 17
Waning Gibbous
Sep 21
Last Quarter
Sep 28
New
Oct 5
First Quarter
Oct 13
Full

Hourly Weather History & Observations

Time (EDT) Temp. Dew Point Humidity Pressure Visibility Wind Dir Wind Speed Gust Speed Precip Events Conditions
12:53 AM 48.9 °F 48.0 °F 97% 30.17 in 10.0 mi South 3.5 mph - N/A   Clear
1:53 AM 51.1 °F 50.0 °F 96% 30.17 in 10.0 mi Calm Calm - N/A   Mostly Cloudy
2:53 AM 51.1 °F 51.1 °F 100% 30.17 in 10.0 mi Calm Calm - N/A   Clear
3:53 AM 51.1 °F 51.1 °F 100% 30.17 in 3.0 mi WSW 3.5 mph - N/A   Clear
4:12 AM 50.0 °F 50.0 °F 100% 30.17 in 2.5 mi WSW 3.5 mph - N/A   Scattered Clouds
4:18 AM 50.0 °F 50.0 °F 100% 30.17 in 3.0 mi WSW 3.5 mph - N/A   Mostly Cloudy
4:46 AM 51.1 °F 51.1 °F 100% 30.18 in 1.8 mi WSW 4.6 mph - N/A   Overcast
4:53 AM 51.1 °F 51.1 °F 100% 30.17 in 0.5 mi WSW 4.6 mph - N/A Fog Fog
5:53 AM 51.1 °F 51.1 °F 100% 30.19 in 0.2 mi SW 3.5 mph - N/A Fog Fog
6:53 AM 51.1 °F 51.1 °F 100% 30.21 in 0.2 mi SW 4.6 mph - N/A Fog Fog
7:53 AM 52.0 °F 52.0 °F 100% 30.22 in 2.0 mi SW 4.6 mph - N/A   Overcast
7:56 AM 52.0 °F 52.0 °F 100% 30.22 in 3.0 mi SW 5.8 mph - N/A   Overcast
8:17 AM 53.1 °F 53.1 °F 100% 30.23 in 10.0 mi SW 5.8 mph - N/A   Scattered Clouds
8:53 AM 55.0 °F 53.1 °F 93% 30.25 in 10.0 mi WSW 5.8 mph - N/A   Clear
9:53 AM 60.1 °F 53.1 °F 78% 30.25 in 10.0 mi Calm Calm - N/A   Clear
10:53 AM 64.9 °F 52.0 °F 63% 30.25 in 10.0 mi Calm Calm - N/A   Clear
11:53 AM 66.9 °F 52.0 °F 59% 30.25 in 10.0 mi Calm Calm - N/A   Clear
12:53 PM 70.0 °F 53.1 °F 55% 30.24 in 10.0 mi Calm Calm - N/A   Clear
1:53 PM 71.1 °F 46.9 °F 42% 30.22 in 10.0 mi NNW 10.4 mph - N/A   Clear
2:53 PM 72.0 °F 51.1 °F 48% 30.21 in 10.0 mi Variable 3.5 mph - N/A   Partly Cloudy
3:53 PM 71.1 °F 52.0 °F 51% 30.20 in 10.0 mi Variable 4.6 mph - N/A   Partly Cloudy
4:53 PM 72.0 °F 46.9 °F 41% 30.20 in 10.0 mi Variable 5.8 mph - N/A   Clear
5:53 PM 69.1 °F 48.9 °F 49% 30.21 in 10.0 mi Variable 5.8 mph - N/A   Clear
6:53 PM 64.9 °F 48.0 °F 54% 30.21 in 10.0 mi North 4.6 mph - N/A   Clear
7:53 PM 55.9 °F 50.0 °F 80% 30.22 in 10.0 mi Calm Calm - N/A   Clear
8:53 PM 51.1 °F 48.9 °F 92% 30.23 in 10.0 mi SSE 3.5 mph - N/A   Clear
9:53 PM 50.0 °F 48.0 °F 93% 30.24 in 10.0 mi Calm Calm - N/A   Clear
10:53 PM 50.0 °F 46.9 °F 89% 30.24 in 10.0 mi Calm Calm - N/A   Clear
11:53 PM 51.1 °F 50.0 °F 96% 30.24 in 10.0 mi Calm Calm - N/A   Clear